User: anonymous   Login
Location: Caltech
(34.1382°N, 118.1253°W)
Time: 13:27:31
(UTC-07:00)
Language:

Cosmos 1833 - Orbit

View from above orbital plane
View from above orbital plane
View from above satellite
View from above satellite

Ground track
Ground track

The orbit data is extracted from the following two-line orbital elements,

1 17589U 87027A   16239.82486736  .00000274  00000-0  17285-3 0  9998
2 17589  70.9136  83.3068 0022568  40.3283 319.9506 14.12862699518723
Epoch (UTC): 26 August 2016 19:47:48
Eccentricity: 0.0022568
inclination: 70.9136°
perigee height: 833 km
apogee height: 866 km
right ascension of ascending node: 83.3068°
argument of perigee: 40.3283°
revolutions per day: 14.12862699
mean anomaly at epoch: 319.9506°
orbit number at epoch: 51872

The dashed part of the orbit path shows where the satellite is in the earth's shadow,  

DLR